Weather Roundup
Issued by NWS

Home | Current Version | Previous Version | Graphics & Text | Print | Product List | Glossary Off
Versions: 1 2 3 4 5 6 7 8 9 10 11 12 13 14 15 16 17 18 19 20 21 22 23 24 25 26 27 28 29 30 31 32 33 34 35 36 37 38 39 40 41 42 43 44 45 46 47 48 49 50

000
NZUS93 KARX 261659
HRRWXR

CURRENT HOURLY OBSERVATIONS ACROSS
MUCH OF THE UPPER MISSISSIPPI VALLEY
NATIONAL WEATHER SERVICE LA CROSSE WI
1100 AM CST WED NOV 26 2014


...SOUTHEAST MINNESOTA...


CITY           SKY/WX    TMP DP  RH WIND       PRES   REMARKS
ROCHESTER      LGT SNOW  23  19  85 NE12      30.09R FOG     WCI  12
ROCHESTER/MAYO CLOUDY    24  20  85 NE3       30.11R
WINONA         PTSUNNY   27  21  80 CALM      30.16R
AUSTIN         LGT SNOW  25  23  93 NE6       30.08R VSB 1   WCI  18
ALBERT LEA     SNOW      25  25 100 N10       30.08R VSB 1/2 WCI  15
DODGE CENTER   LGT SNOW  23  21  93 NE9       30.10R WCI  13
PRESTON        CLOUDY    23  19  85 NE6       30.09R WCI  16
OWATONNA       SNOW      23  19  86 N8        30.12R VSB 1/4 WCI  14
FARIBAULT      SNOW      23  21  93 N8        30.14R VSB 1/4 WCI  14
$$

...ELSEWHERE IN MINNESOTA...


CITY           SKY/WX    TMP DP  RH WIND       PRES   REMARKS
MINNEAPOLIS    SNOW      23  20  88 N9        30.18S VSB 1/2 WCI  13
INTNL FALLS    MOSUNNY    5  -3  69 N8        30.28S WCI  -8
DULUTH         FLURRIES  20  12  71 N9        30.16R WCI   9
RED WING       LGT SNOW  27  21  80 NE3       30.16R VSB 3/4
REDWOOD FALLS  PTSUNNY   24  19  81 N13G20    30.19R WCI  12
MANKATO        CLOUDY    23  18  80 NE15      30.13R VSB 1   WCI  10
WORTHINGTON    CLOUDY    21  18  86 N23G30    30.13R WCI   5
FAIRMONT       CLOUDY    25  21  86 N14       30.10R WCI  13
$$

...SOUTHWEST WISCONSIN...


CITY           SKY/WX    TMP DP  RH WIND       PRES   REMARKS
LA CROSSE      CLOUDY    25  17  72 NE3       30.14S
PRAIRIE DU CHI CLOUDY    23  18  82 SE5       30.11S WCI  17
BOSCOBEL       CLOUDY    22  17  81 NE7       30.13F WCI  13
LONE ROCK      NOT AVBL
PLATTEVILLE    CLOUDY    21  20  96 E10       30.11S WCI  10
FORT MC COY    CLOUDY    24  18  77 CALM      30.15S
VIROQUA        FAIR      21  18  89 E7        30.10R WCI  12
WIS DELLS      PTSUNNY   19  17  95 N3        30.13S FOG
$$

...ELSEWHERE IN WISCONSIN...


CITY           SKY/WX    TMP DP  RH WIND       PRES   REMARKS
MILWAUKEE      PTSUNNY   28  21  75 CALM      30.14F HAZE
MADISON        CLOUDY    18  16  92 S9        30.15S FOG     WCI   7
GREEN BAY      PTSUNNY   20  19  96 S3        30.18F
EAU CLAIRE     NOT AVBL
BLACK RVR FLS  CLOUDY    24  17  75 NE6       30.15S WCI  16
MEDFORD        CLOUDY    21  14  75 S3        30.11S
WAUSAU         CLOUDY    21  17  84 CALM      30.12S
WIS RAPIDS     PTSUNNY   21  15  78 CALM      30.16R
MARSHFIELD     CLOUDY    21  15  78 SE5       30.13R WCI  15
RICE LAKE      CLOUDY    24  17  75 CALM      30.18R
$$

...NORTHEAST IOWA...


CITY           SKY/WX    TMP DP  RH WIND       PRES   REMARKS
DECORAH        PTSUNNY   23  19  86 E7        30.07R WCI  15
MASON CITY     CLOUDY    28  21  75 E9        30.06R WCI  19
CHARLES CITY   CLOUDY    27  23  86 E12       30.05R WCI  16
OELWEIN        PTSUNNY   28  23  80 E14       30.04S WCI  17
$$

...ELSEWHERE IN IOWA...


CITY           SKY/WX    TMP DP  RH WIND       PRES   REMARKS
DES MOINES     LGT SNOW  30  27  88 NE10      29.95R FOG     WCI  21
IOWA CITY      CLOUDY    27  23  85 E13       30.05R WCI  16
FORT DODGE     CLOUDY    27  21  80 N8        30.04R WCI  18
$$

...NORTHERN ILLINOIS...


CITY           SKY/WX    TMP DP  RH WIND       PRES   REMARKS
CHICAGO-OHARE  CLOUDY    26  20  77 SE8       30.13F WCI  18
CHICAGO-MIDWAY CLOUDY    28  20  71 SE9       30.14F WCI  19
MOLINE         CLOUDY    27  23  85 E10       30.07S WCI  17
ROCKFORD       CLOUDY    25  21  85 SE7       30.15F WCI  17
PEORIA         PTSUNNY   32  25  75 E12       30.08S WCI  23
$$

NOTE: "FAIR" INDICATES FEW OR NO CLOUDS BELOW 12,000 FEET WITH NO
SIGNIFICANT WEATHER AND/OR OBSTRUCTIONS TO VISIBILITY. WIND
SPEEDS ARE IN MILES-PER-HOUR.



USA.gov is the U.S. government's official web portal to all federal, state and local government web resources and services.